EXPRESS-AT2

Last updated on Jan. 15, 2021, 6:31 a.m. UTC

1 39613U 14010B   21014.83748918 -.00000288  00000-0  00000-0 0  9993
2 39613   0.0179 264.3385 0000176 184.3851 107.1318  1.00270906 24671
UTC
Height (km)
Latitude
Longitude
Inclination
Orbital Period
UTC large
Height (km)
Speed (km/s)
/
Latitude / Longitude
Inclination (degrees)
Orbital Period (minutes)
Azimuth
Elevation
Range (km)
Doppler Factor
iOS Compass Heading
iOS Angle

Next 30 passes for location: Hong Kong

Rise time Rise Azimuth (degrees) Set time Set Azimuth (degrees) Duration Max altitude (degrees)

No matching passes for this satellites